GW3001 Weather Reports


time (UTC)temp
C
wind
direction
speed
KPH
gust
KPH
rain 1hr
cm
rain 24hr
cm
rain mn
cm
humidity
%
barometer
mb
20260504090111 17 113 1.6 6.4 0.00 0.00 0.00 84 1013.4
20260504081511 17 129 1.6 4.8 0.00 0.00 0.00 83 1013.7
20260504081001 17 128 1.6 4.8 0.00 0.00 0.00 83 1013.9
20260504080500 17 137 1.6 6.4 0.00 0.00 0.00 83 1013.7
20260504050732 18 118 1.6 6.4 0.00 0.00 0.00 80 1016.0
20260504050230 18 176 1.6 6.4 0.00 0.00 0.00 80 1016.2
20260504045728 18 176 1.6 6.4 0.00 0.00 0.00 80 1016.3
20260504045229 18 178 1.6 8.0 0.00 0.00 0.00 80 1016.3
20260504044725 18 182 1.6 8.0 0.00 0.00 0.00 80 1016.3
20260504044214 18 124 3.2 6.4 0.00 0.00 0.00 80 1016.3
20260504043710 18 121 1.6 6.4 0.00 0.00 0.00 80 1016.4
20260504043205 18 134 1.6 6.4 0.00 0.00 0.00 80 1016.4
20260504043159 18 132 1.6 4.8 0.00 0.00 0.00 80 1016.4
20260504042147 18 132 1.6 6.4 0.00 0.00 0.00 80 1016.4
20260504041643 18 127 1.6 6.4 0.00 0.00 0.00 80 1016.4
20260504041143 18 130 1.6 4.8 0.00 0.00 0.00 80 1016.4
20260504040635 18 129 1.6 6.4 0.00 0.00 0.00 80 1016.5
20260504040144 18 128 1.6 3.2 0.00 0.00 0.00 80 1016.6
20260504040138 18 128 1.6 6.4 0.00 0.00 0.00 80 1016.6
20260504035754 18 128 1.6 4.8 0.00 0.00 0.00 80 1016.5
20260504035246 18 130 1.6 3.2 0.00 0.00 0.00 79 1016.4
20260504034630 18 129 1.6 4.8 0.00 0.00 0.00 79 1016.4
20260504034245 18 130 1.6 4.8 0.00 0.00 0.00 79 1016.3
20260504033129 18 131 1.6 4.8 0.00 0.00 0.00 79 1016.4
20260504032629 18 131 0.0 3.2 0.00 0.00 0.00 78 1016.4
20260504032131 19 131 1.6 3.2 0.00 0.00 0.00 78 1016.5
20260504032126 19 131 0.0 3.2 0.00 0.00 0.00 78 1016.4
20260504031108 19 132 1.6 8.0 0.00 0.00 0.00 78 1016.3
20260504030602 19 127 1.6 8.0 0.00 0.00 0.00 77 1016.3
20260504030104 19 123 1.6 4.8 0.00 0.00 0.00 77 1016.2
20260504025602 20 122 3.2 8.0 0.00 0.00 0.00 76 1016.3
20260504025556 19 123 1.6 6.4 0.00 0.00 0.00 77 1016.2
20260504025056 20 122 3.2 8.0 0.00 0.00 0.00 76 1016.3
20260504024056 20 107 1.6 6.4 0.00 0.00 0.00 75 1016.2
20260504023557 20 101 1.6 8.0 0.00 0.00 0.00 75 1016.2
20260504023047 20 99 1.6 8.0 0.00 0.00 0.00 75 1016.0
20260504022548 20 144 3.2 9.7 0.00 0.00 0.00 75 1016.0
20260504022047 20 140 3.2 9.7 0.00 0.00 0.00 74 1015.9
20260504021547 20 155 3.2 6.4 0.00 0.00 0.00 74 1015.8
20260504021043 20 146 3.2 6.4 0.00 0.00 0.00 73 1015.9
20260504020549 20 119 3.2 6.4 0.00 0.00 0.00 72 1015.8
20260504020544 20 143 3.2 6.4 0.00 0.00 0.00 73 1015.8
20260504020200 20 158 3.2 6.4 0.00 0.00 0.00 72 1015.8
20260504015045 21 137 3.2 8.0 0.00 0.00 0.00 72 1015.8
20260504014541 21 162 3.2 8.0 0.00 0.00 0.00 71 1015.7
20260504014043 21 159 3.2 8.0 0.00 0.00 0.00 70 1015.7
20260504014038 21 109 3.2 8.0 0.00 0.00 0.00 70 1015.7
20260504013036 21 115 3.2 6.4 0.00 0.00 0.00 69 1015.7
20260504013030 21 130 3.2 6.4 0.00 0.00 0.00 68 1015.7
20260504012031 22 138 3.2 6.4 0.00 0.00 0.00 67 1015.7
20260504011529 22 120 3.2 8.0 0.00 0.00 0.00 67 1015.5
20260504011030 22 74 3.2 8.0 0.00 0.00 0.00 66 1015.6
20260504010529 22 90 3.2 11.3 0.00 0.00 0.00 65 1015.5
20260504010028 22 78 3.2 11.3 0.00 0.00 0.00 64 1015.6
20260504005523 22 103 3.2 8.0 0.00 0.00 0.00 63 1015.5
20260504005022 23 124 4.8 11.3 0.00 0.00 0.00 63 1015.7
20260504004521 23 118 4.8 12.9 0.00 0.00 0.00 61 1015.7
20260504004018 23 61 4.8 12.9 0.00 0.00 0.00 60 1015.7
20260504003515 23 76 4.8 11.3 0.00 0.00 0.00 60 1015.6
20260504003011 23 104 4.8 16.1 0.00 0.00 0.00 59 1015.6
20260504002514 23 83 4.8 16.1 0.00 0.00 0.00 58 1015.8
20260504002012 23 87 4.8 11.3 0.00 0.00 0.00 58 1015.6
20260504001513 24 130 4.8 19.3 0.00 0.00 0.00 57 1015.8
20260504001012 24 74 8.0 19.3 0.00 0.00 0.00 56 1015.9
20260504001004 24 78 6.4 17.7 0.00 0.00 0.00 56 1015.9
20260504000002 24 101 6.4 14.5 0.00 0.00 0.00 56 1015.9
20260503235458 25 90 4.8 14.5 0.00 0.00 0.00 56 1015.8
20260503234955 25 72 6.4 16.1 0.00 0.00 0.00 56 1015.9
20260503234456 25 102 8.0 17.7 0.00 0.00 0.00 56 1015.8
20260503233956 25 83 6.4 17.7 0.00 0.00 0.00 56 1015.8
20260503233455 25 84 6.4 16.1 0.00 0.00 0.00 57 1015.7
20260503232956 25 171 6.4 16.1 0.00 0.00 0.00 57 1015.6
20260503232455 25 93 6.4 17.7 0.00 0.00 0.00 57 1015.7
20260503231955 25 142 6.4 17.7 0.00 0.00 0.00 56 1015.8
20260503231452 25 176 6.4 17.7 0.00 0.00 0.00 57 1015.8
20260503230951 25 67 6.4 17.7 0.00 0.00 0.00 56 1015.8
20260503230451 25 126 4.8 16.1 0.00 0.00 0.00 55 1015.9
20260503225952 26 167 4.8 16.1 0.00 0.00 0.00 53 1015.9
20260503225454 26 165 6.4 16.1 0.00 0.00 0.00 52 1016.0
20260503224951 26 162 6.4 14.5 0.00 0.00 0.00 51 1016.0
20260503224947 26 163 6.4 14.5 0.00 0.00 0.00 53 1015.9
20260503224608 26 93 4.8 19.3 0.00 0.00 0.00 51 1016.2
20260503224603 26 104 4.8 16.1 0.00 0.00 0.00 54 1016.1
20260503222943 26 173 4.8 19.3 0.00 0.00 0.00 48 1016.1
20260503222436 26 166 4.8 14.5 0.00 0.00 0.00 45 1016.2
20260503221934 26 178 4.8 14.5 0.00 0.00 0.00 47 1016.4
20260503221434 26 147 6.4 11.3 0.00 0.00 0.00 48 1016.4
20260503220934 26 164 6.4 19.3 0.00 0.00 0.00 48 1016.4
20260503220433 26 52 6.4 19.3 0.00 0.00 0.00 46 1016.4
20260503215933 26 154 6.4 14.5 0.00 0.00 0.00 49 1016.4
20260503215435 26 177 6.4 16.1 0.00 0.00 0.00 48 1016.4
20260503214928 26 76 6.4 16.1 0.00 0.00 0.00 47 1016.5
20260503214426 26 46 6.4 16.1 0.00 0.00 0.00 47 1016.6
20260503213927 27 49 6.4 19.3 0.00 0.00 0.00 47 1016.6
20260503213426 27 82 8.0 19.3 0.00 0.00 0.00 46 1016.6
20260503212926 27 95 8.0 16.1 0.00 0.00 0.00 47 1016.7
20260503212427 27 136 6.4 16.1 0.00 0.00 0.00 47 1016.7
20260503211926 27 67 4.8 14.5 0.00 0.00 0.00 48 1016.9
20260503211425 27 166 4.8 11.3 0.00 0.00 0.00 46 1016.8
20260503210926 27 120 4.8 16.1 0.00 0.00 0.00 45 1017.1
20260503210423 27 144 4.8 16.1 0.00 0.00 0.00 44 1017.2
20260503205921 27 153 4.8 14.5 0.00 0.00 0.00 47 1017.3
20260503205417 27 75 4.8 9.7 0.00 0.00 0.00 46 1017.4
20260503205412 27 89 4.8 14.5 0.00 0.00 0.00 45 1017.3
20260503204416 27 131 6.4 16.1 0.00 0.00 0.00 46 1017.6
20260503204412 27 108 4.8 16.1 0.00 0.00 0.00 46 1017.4
20260503203411 27 113 6.4 14.5 0.00 0.00 0.00 46 1017.6
20260503202911 27 181 4.8 14.5 0.00 0.00 0.00 44 1017.7
20260503202411 27 59 4.8 11.3 0.00 0.00 0.00 45 1017.8
20260503201916 27 175 4.8 14.5 0.00 0.00 0.00 46 1018.1
20260503201911 27 57 6.4 12.9 0.00 0.00 0.00 43 1018.1
20260503200909 27 88 6.4 17.7 0.00 0.00 0.00 46 1018.1
20260503200407 27 166 6.4 17.7 0.00 0.00 0.00 46 1018.1
20260503195907 27 110 6.4 16.1 0.00 0.00 0.00 47 1018.2
20260503195407 27 199 6.4 17.7 0.00 0.00 0.00 45 1018.3
20260503194906 27 170 4.8 17.7 0.00 0.00 0.00 46 1018.3
20260503194405 27 213 4.8 14.5 0.00 0.00 0.00 45 1018.2
20260503193910 27 170 6.4 12.9 0.00 0.00 0.00 45 1018.4
20260503193906 27 171 6.4 14.5 0.00 0.00 0.00 45 1018.4
20260503192904 27 161 4.8 16.1 0.00 0.00 0.00 45 1018.6
20260503192404 27 160 4.8 16.1 0.00 0.00 0.00 45 1018.7
20260503191901 27 213 6.4 14.5 0.00 0.00 0.00 46 1018.7
20260503191403 27 146 4.8 14.5 0.00 0.00 0.00 45 1018.8
20260503190904 27 66 4.8 11.3 0.00 0.00 0.00 45 1018.8
20260503190357 27 41 4.8 11.3 0.00 0.00 0.00 47 1018.8
20260503185859 27 109 4.8 11.3 0.00 0.00 0.00 47 1018.9
20260503185346 27 184 4.8 12.9 0.00 0.00 0.00 46 1018.9
20260503184846 27 99 4.8 14.5 0.00 0.00 0.00 45 1019.0
20260503184346 27 69 4.8 14.5 0.00 0.00 0.00 47 1019.1
20260503184335 27 141 3.2 9.7 0.00 0.00 0.00 49 1019.1
20260503183951 27 206 3.2 16.1 0.00 0.00 0.00 48 1019.2
20260503182834 26 62 4.8 16.1 0.00 0.00 0.00 51 1019.3
20260503182334 27 132 4.8 14.5 0.00 0.00 0.00 46 1019.4
20260503181832 27 57 4.8 14.5 0.00 0.00 0.00 47 1019.6
20260503181323 27 70 4.8 11.3 0.00 0.00 0.00 46 1019.7
20260503180822 26 62 4.8 11.3 0.00 0.00 0.00 47 1019.7
20260503180323 27 164 4.8 8.0 0.00 0.00 0.00 49 1019.9
20260503175820 26 105 4.8 8.0 0.00 0.00 0.00 49 1020.0
20260503175319 27 78 3.2 11.3 0.00 0.00 0.00 48 1020.1
20260503174818 26 119 4.8 16.1 0.00 0.00 0.00 50 1020.2
20260503174813 26 64 6.4 16.1 0.00 0.00 0.00 49 1020.2
20260503174304 26 162 4.8 9.7 0.00 0.00 0.00 50 1020.5
20260503173908 27 70 4.8 11.3 0.00 0.00 0.00 50 1020.2
20260503173406 26 81 3.2 9.7 0.00 0.00 0.00 50 1020.3
20260503172905 26 158 4.8 9.7 0.00 0.00 0.00 51 1020.3
20260503172417 26 105 4.8 9.7 0.00 0.00 0.00 53 1020.5
20260503171258 26 173 4.8 9.7 0.00 0.00 0.00 51 1020.6
20260503170801 26 179 4.8 14.5 0.00 0.00 0.00 52 1020.7
20260503170757 26 73 4.8 9.7 0.00 0.00 0.00 54 1020.7
20260503150729 24 84 3.2 8.0 0.00 0.00 0.00 58 1020.9
20260503150723 24 80 3.2 8.0 0.00 0.00 0.00 58 1021.0
20260503140108 20 59 0.0 3.2 0.00 0.03 0.00 78 1020.7
20260503131008 17 60 0.0 4.8 0.00 0.03 0.00 85 1020.4
20260503130502 16 60 0.0 1.6 0.00 0.03 0.00 86 1020.3
20260503110706 13 60 0.0 0.0 0.00 0.03 0.00 91 1019.0
20260503110306 13 60 0.0 0.0 0.00 0.03 0.00 91 1019.0
20260503110202 13 60 0.0 0.0 0.00 0.03 0.00 91 1018.9
20260503110157 13 60 0.0 0.0 0.00 0.03 0.00 91 1018.9